カタログに戻る

ONEWEB-0337

運用中通信PO
NORAD 49203·PAYLOAD·🇬🇧 United Kingdom

打ち上げ Sep 14, 2021 から Baikonur Cosmodrome

Loading…

次のパス (今後24時間)

TLE

最新Source: CelesTrak SupGP

元期: Sep 14, 2026, 22:29 UTC

1 49203C 21083T   26257.93731898  .00001024  00000+0  28076-2 0  2570
2 49203  87.8918 302.3760 0001767 100.9280 295.1411 13.13468101    15

AllMySatでONEWEB-0337をリアルタイム追跡

Download on the App Store